Tracking 30922 objects as of 2-Jul-2025
HD Live streaming from Space Station
objects crossing your sky now

STARLINK-31157

Track STARLINK-31157 now!
10-day predictions
STARLINK-31157 is classified as:


NORAD ID: 58735
Int'l Code: 2024-005H
Perigee: 565.4 km
Apogee: 567.1 km
Inclination: 43.0 °
Period: 95.8 minutes
Semi major axis: 6937 km
RCS: Unknown
Launch date: January 7, 2024
Source: United States (US)
Launch site: AIR FORCE EASTERN TEST RANGE (AFETR)
Your satellite tracking list
Your tracking list is empty




NASA's NSSDC Master Catalog

Two Line Element Set (TLE):
1 58735U 24005H   25182.17726783 -.00000204  00000-0 -18590-8 0  9997
2 58735  43.0034 148.6097 0001234 298.6961  61.3757 15.02534205 82589
Source of the keplerian elements: AFSPC